This is the latest recevied weather packets stored in our database for station/object SP9MUF-14. If no packets are shown the sender has not sent any weather packets the latest 10 day(s).
| Time | Temp. | Humidity | Pressure | Rain* | Wind** | Luminosity | Snow |
|---|---|---|---|---|---|---|---|
| 1778203220 | 11.67° C | 94% | 1015.1 hPa | 0.51 mm | - | 0 W/m² | - |
| 1778202611 | 11.67° C | 93% | 1015.1 hPa | 1.02 mm | - | 0 W/m² | - |
| 1778202307 | 11.67° C | 93% | 1015 hPa | 0.76 mm | - | 0 W/m² | - |
| 1778202004 | 11.67° C | 92% | 1014.9 hPa | 1.27 mm | - | 0 W/m² | - |
| 1778201700 | 11.67° C | 93% | 1014.9 hPa | 1.27 mm | - | 0 W/m² | - |
| 1778201395 | 11.67° C | 93% | 1014.9 hPa | 1.52 mm | - | 0 W/m² | - |
| 1778201092 | 11.67° C | 94% | 1014.8 hPa | 1.78 mm | - | 0 W/m² | - |
| 1778200788 | 11.67° C | 94% | 1014.9 hPa | 1.78 mm | - | 0 W/m² | - |
| 1778200484 | 11.67° C | 94% | 1014.9 hPa | 1.78 mm | - | 0 W/m² | - |
| 1778200180 | 11.67° C | 93% | 1014.9 hPa | 1.78 mm | - | 0 W/m² | - |
| 1778198964 | 11.67° C | 92% | 1015.1 hPa | 0.76 mm | - | 0 W/m² | - |
| 1778197444 | 11.67° C | 91% | 1015.4 hPa | 0 mm | - | 0 W/m² | - |
| 1778197140 | 11.67° C | 92% | 1015.4 hPa | 0 mm | - | 0 W/m² | - |
| 1778196836 | 11.67° C | 92% | 1015.4 hPa | 0 mm | - | 0 W/m² | - |
| 1778195621 | 11.67° C | 90% | 1015.2 hPa | 0 mm | - | 0 W/m² | - |
| 1778194709 | 11.67° C | 90% | 1015 hPa | 0 mm | - | 0 W/m² | - |
| 1778193797 | 11.67° C | 90% | 1015.2 hPa | 0 mm | - | 0 W/m² | - |
| 1778193493 | 11.67° C | 90% | 1015 hPa | 0 mm | - | 0 W/m² | - |
| 1778193189 | 11.67° C | 90% | 1014.8 hPa | 0 mm | - | 0 W/m² | - |
| 1778192277 | 11.67° C | 90% | 1015 hPa | 0 mm | - | 0 W/m² | - |
| 1778191973 | 11.67° C | 90% | 1015 hPa | 0 mm | - | 0 W/m² | - |
| 1778191061 | 11.67° C | 90% | 1015.1 hPa | 0 mm | - | 0 W/m² | - |
| 1778190757 | 11.67° C | 90% | 1015.1 hPa | 0 mm | - | 0 W/m² | - |
| 1778188934 | 11.67° C | 90% | 1014.8 hPa | 0 mm | - | 0 W/m² | - |
| 1778188630 | 11.67° C | 90% | 1014.8 hPa | 0 mm | - | 0 W/m² | - |
* Rain latest hour (hover to see other rain measurements)
** Current wind speed in m/s (hover to see current wind gust speed)